Location: Newark
(44.6768°N, 22.5302°E)
Time: 21:30:42
(UTC+00:00)

UKube-1 - Pass Details

Date: 06 July 2022
Orbit: 608 x 615 km, 98.4° (Epoch: 11 August)

Event Time Altitude Azimuth Distance (km) Brightness Sun altitude
Rises 20:09:25 0° 19° (NNE) 2,891 ? -15.0°
Reaches altitude 10° 20:11:41 10° 25° (NNE) 1,980 ? -15.2°
Maximum altitude 20:15:50 47° 100° (E) 821 ? -15.6°
Enters shadow 20:17:40 28° 156° (SSE) 1,143 ? -15.8°
